Iron Mountain, MI

8:34 AM CDT on September 25, 2016 (GMT -0500)
Ford

Weather History for KIMT - June, 2013

Change the Weather History Date:

Sunday, June 16, 2013

  Actual Average Record
Temperature  
Mean Temperature 69 °F -  
Max Temperature 82 °F 72 °F 90 °F (2006)
Min Temperature 55 °F 49 °F 30 °F (1964)
Cooling Degree Days 4    
Growing Degree Days 19 (Base 50)    
Moisture  
Dew Point 55 °F    
Average Humidity 74    
Maximum Humidity 100    
Minimum Humidity 27    
Precipitation  
Precipitation 0.06 in - - ()
Sea Level Pressure  
Sea Level Pressure 29.81 in    
Wind  
Wind Speed 6 mph (WNW)    
Max Wind Speed 22 mph    
Max Gust Speed 45 mph    
Visibility 8 miles    
Events Rain , Thunderstorm    
Averages and records for this station are not official NWS values.
T = Trace of Precipitation, MM = Missing Value Source: NWS Daily Summary

Daily Weather History Graph

Daily Weather History Graph

Search for Another Location

Airport or City:

Trip Planner

Search our weather history database for the weather conditions in past years. The results will help you decide how hot, cold, wet, or windy it might be!

Date:

Astronomy

Jun. 16, 2013 Rise Set
Actual Time 5:01 AM CDT 8:44 PM CDT
Civil Twilight 4:23 AM CDT 9:23 PM CDT
Nautical Twilight 3:32 AM CDT 10:14 PM CDT
Astronomical Twilight 2:21 AM CDT 11:25 PM CDT
Moon 1:00 PM CDT (6/16) 12:28 AM CDT (6/16)
Length of Visible Light 16h 59m
Length of Day
15h 43m
Waxing Crescent, 50% of the Moon is Illuminated
Jun 16
Waxing Crescent
Jun 16
First Quarter
Jun 23
Full
Jun 29
Last Quarter
Jul 8
New

Hourly Weather History & Observations

Time (CDT) Temp. Dew Point Humidity Pressure Visibility Wind Dir Wind Speed Gust Speed Precip Events Conditions
12:07 AM 62.6 °F 62.6 °F 100% 29.81 in 4.0 mi South 4.6 mph - N/A   Mostly Cloudy
12:20 AM 62.6 °F 62.6 °F 100% 29.81 in 2.5 mi Variable 3.5 mph - N/A   Overcast
12:29 AM 62.6 °F 62.6 °F 100% 29.81 in 1.5 mi NNW 5.8 mph - N/A   Overcast
12:39 AM 62.6 °F 62.6 °F 100% 29.81 in 2.5 mi NNW 5.8 mph - N/A   Overcast
12:51 AM 62.6 °F 62.6 °F 100% 29.81 in 5.0 mi NW 3.5 mph - N/A   Overcast
12:54 AM 63.0 °F 62.1 °F 97% 29.81 in 6.0 mi WNW 4.6 mph - N/A   Overcast
1:34 AM 62.6 °F 60.8 °F 94% 29.82 in 8.0 mi West 6.9 mph - N/A   Overcast
1:54 AM 63.0 °F 62.1 °F 97% 29.81 in 8.0 mi WNW 5.8 mph - N/A   Overcast
2:18 AM 64.4 °F 60.8 °F 88% 29.81 in 10.0 mi WNW 5.8 mph - N/A   Overcast
2:54 AM 63.0 °F 60.1 °F 90% 29.80 in 10.0 mi Calm Calm - N/A   Scattered Clouds
3:22 AM 59.0 °F 57.2 °F 94% 29.79 in 1.8 mi Calm Calm - N/A   Clear
3:38 AM 59.0 °F 57.2 °F 94% 29.79 in 3.0 mi Calm Calm - N/A   Clear
3:54 AM 57.9 °F 57.9 °F 100% 29.79 in 1.8 mi Calm Calm - N/A   Clear
4:01 AM 59.0 °F 57.2 °F 94% 29.79 in 3.0 mi Calm Calm - N/A   Clear
4:09 AM 59.0 °F 57.2 °F 94% 29.79 in 9.0 mi WNW 3.5 mph - N/A   Scattered Clouds
4:18 AM 60.8 °F 59.0 °F 94% 29.79 in 10.0 mi West 8.1 mph - N/A   Mostly Cloudy
4:30 AM 59.0 °F 57.2 °F 94% 29.79 in 10.0 mi WNW 10.4 mph - N/A   Overcast
4:54 AM 60.1 °F 57.9 °F 93% 29.80 in 10.0 mi West 5.8 mph - N/A   Overcast
5:19 AM 59.0 °F 57.2 °F 94% 29.80 in 10.0 mi WNW 4.6 mph - N/A   Mostly Cloudy
5:29 AM 59.0 °F 57.2 °F 94% 29.80 in 10.0 mi WNW 3.5 mph - N/A   Scattered Clouds
5:54 AM 60.1 °F 57.0 °F 90% 29.80 in 10.0 mi West 3.5 mph - N/A   Clear
6:54 AM 63.0 °F 57.9 °F 84% 29.81 in 10.0 mi WNW 4.6 mph - N/A   Clear
7:54 AM 66.0 °F 55.9 °F 70% 29.80 in 10.0 mi West 4.6 mph - N/A   Clear
8:54 AM 71.1 °F 55.0 °F 57% 29.81 in 10.0 mi WNW 6.9 mph - N/A   Clear
9:54 AM 75.0 °F 53.1 °F 46% 29.79 in 10.0 mi West 11.5 mph - N/A   Clear
10:54 AM 77.0 °F 51.1 °F 40% 29.78 in 10.0 mi NW 11.5 mph 24.2 mph N/A   Clear
11:54 AM 79.0 °F 50.0 °F 36% 29.78 in 10.0 mi West 16.1 mph 21.9 mph N/A   Scattered Clouds
12:54 PM 80.1 °F 48.9 °F 34% 29.78 in 10.0 mi WNW 12.7 mph - N/A   Partly Cloudy
1:54 PM 81.0 °F 46.9 °F 30% 29.78 in 10.0 mi West 21.9 mph 27.6 mph N/A   Mostly Cloudy
2:54 PM 79.0 °F 45.0 °F 30% 29.78 in 10.0 mi NW 19.6 mph 25.3 mph N/A   Scattered Clouds
3:54 PM 81.0 °F 44.1 °F 27% 29.78 in 10.0 mi WNW 18.4 mph 33.4 mph N/A   Scattered Clouds
4:36 PM 78.8 °F 42.8 °F 28% 29.81 in 10.0 mi WNW 17.3 mph 24.2 mph N/A Thunderstorm Mostly Cloudy
4:49 PM 71.6 °F 48.2 °F 43% 29.83 in 10.0 mi West 15.0 mph 43.7 mph 0.00 in Rain , Thunderstorm Light Thunderstorms and Rain
4:54 PM 71.1 °F 52.0 °F 51% 29.83 in 10.0 mi WSW 9.2 mph 21.9 mph 0.00 in Rain , Thunderstorm Light Thunderstorms and Rain
5:10 PM 71.6 °F 50.0 °F 46% 29.82 in 10.0 mi West 8.1 mph 17.3 mph 0.00 in   Partly Cloudy
5:54 PM 75.0 °F 48.0 °F 38% 29.81 in 10.0 mi West 9.2 mph - 0.00 in   Clear
6:54 PM 75.0 °F 46.9 °F 37% 29.81 in 10.0 mi WNW 15.0 mph 19.6 mph N/A   Partly Cloudy
7:35 PM 62.6 °F 55.4 °F 77% 29.88 in 3.0 mi NW 18.4 mph 44.9 mph 0.05 in Rain Rain
7:54 PM 63.0 °F 55.0 °F 75% 29.87 in 9.0 mi North 10.4 mph 17.3 mph 0.05 in Rain Light Rain
8:54 PM 61.0 °F 55.0 °F 81% 29.88 in 10.0 mi North 4.6 mph - 0.01 in Rain Light Rain
9:54 PM 59.0 °F 55.0 °F 87% 29.85 in 10.0 mi SSE 3.5 mph - 0.00 in   Overcast
10:54 PM 57.9 °F 54.0 °F 87% 29.86 in 10.0 mi SSW 3.5 mph - N/A   Clear
11:54 PM 55.9 °F 54.0 °F 93% 29.84 in 10.0 mi SSW 3.5 mph - N/A   Overcast